Time,TemperatureF,DewpointF,PressureIn,WindDirection,WindDirectionDegrees,WindSpeedMPH,WindSpeedGustMPH,Humidity,HourlyPrecipIn,Conditions,Clouds,dailyrainin,SoftwareType,DateUTC
2013-07-20 00:02:00,59.2,36.1,28.14,SW,225,0.0,0.0,42,0.00,,---,0.00,VWS V14.01,2013-07-20 07:02:00,
2013-07-20 00:07:00,59.4,36.3,28.14,NW,315,0.0,0.0,42,0.00,,---,0.00,VWS V14.01,2013-07-20 07:07:00,
2013-07-20 00:12:00,59.4,36.3,28.14,North,0,0.0,0.0,42,0.00,,---,0.00,VWS V14.01,2013-07-20 07:12:00,
2013-07-20 00:17:00,59.4,35.7,28.14,NNW,338,0.0,0.0,41,0.00,,---,0.00,VWS V14.01,2013-07-20 07:17:00,
2013-07-20 00:22:00,59.4,35.7,28.14,WNW,292,0.0,0.0,41,0.00,,---,0.00,VWS V14.01,2013-07-20 07:22:00,
2013-07-20 00:27:00,59.4,35.7,28.14,WNW,292,0.0,0.0,41,0.00,,---,0.00,VWS V14.01,2013-07-20 07:27:00,
2013-07-20 00:32:00,59.2,35.5,28.14,SE,135,0.0,0.0,41,0.00,,---,0.00,VWS V14.01,2013-07-20 07:32:00,
2013-07-20 00:37:00,59.2,35.5,28.14,NNE,22,0.0,0.0,41,0.00,,---,0.00,VWS V14.01,2013-07-20 07:37:00,
2013-07-20 00:42:00,59.2,35.5,28.14,WSW,248,0.0,0.0,41,0.00,,---,0.00,VWS V14.01,2013-07-20 07:42:00,
2013-07-20 00:47:00,59.5,35.2,28.17,WSW,248,0.0,0.0,40,0.00,,---,0.00,VWS V14.01,2013-07-20 07:47:00,
2013-07-20 00:52:00,59.4,35.1,28.17,West,270,0.0,0.0,40,0.00,,---,0.00,VWS V14.01,2013-07-20 07:52:00,
2013-07-20 00:57:00,59.4,35.1,28.17,NW,315,0.0,0.0,40,0.00,,---,0.00,VWS V14.01,2013-07-20 07:57:00,
2013-07-20 01:02:00,59.2,34.9,28.14,NE,45,0.0,0.0,40,0.00,,---,0.00,VWS V14.01,2013-07-20 08:02:00,
2013-07-20 01:07:00,59.0,34.7,28.14,SW,225,0.0,0.0,40,0.00,,---,0.00,VWS V14.01,2013-07-20 08:07:00,
2013-07-20 01:12:00,58.6,35.0,28.14,SW,225,0.0,0.0,41,0.00,,---,0.00,VWS V14.01,2013-07-20 08:12:00,
2013-07-20 01:17:00,58.1,33.9,28.17,South,180,0.0,0.0,40,0.00,,---,0.00,VWS V14.01,2013-07-20 08:17:00,
2013-07-20 01:22:00,57.7,34.2,28.17,SW,225,0.0,0.0,41,0.00,,---,0.00,VWS V14.01,2013-07-20 08:22:00,
2013-07-20 01:27:00,57.6,34.1,28.17,West,270,0.0,0.0,41,0.00,,---,0.00,VWS V14.01,2013-07-20 08:27:00,
2013-07-20 01:32:00,57.6,34.1,28.14,WNW,292,0.0,0.0,41,0.00,,---,0.00,VWS V14.01,2013-07-20 08:32:00,
2013-07-20 01:37:00,57.4,33.9,28.14,WNW,292,0.0,0.0,41,0.00,,---,0.00,VWS V14.01,2013-07-20 08:37:00,
2013-07-20 01:42:00,57.0,33.6,28.14,WNW,292,0.0,0.0,41,0.00,,---,0.00,VWS V14.01,2013-07-20 08:42:00,
2013-07-20 01:47:00,57.0,33.6,28.14,ENE,68,0.0,0.0,41,0.00,,---,0.00,VWS V14.01,2013-07-20 08:47:00,
2013-07-20 01:53:00,56.8,33.4,28.14,NNE,22,0.0,0.0,41,0.00,,---,0.00,VWS V14.01,2013-07-20 08:53:00,
2013-07-20 01:58:00,56.5,33.7,28.14,NNE,22,0.0,0.0,42,0.00,,---,0.00,VWS V14.01,2013-07-20 08:58:00,
2013-07-20 02:03:00,56.3,33.5,28.14,NNE,22,0.0,0.0,42,0.00,,---,0.00,VWS V14.01,2013-07-20 09:03:00,
2013-07-20 02:08:00,55.8,33.0,28.14,NNE,22,0.0,0.0,42,0.00,,---,0.00,VWS V14.01,2013-07-20 09:08:00,
2013-07-20 02:13:00,55.4,32.7,28.14,NNE,22,0.0,0.0,42,0.00,,---,0.00,VWS V14.01,2013-07-20 09:13:00,
2013-07-20 02:18:00,55.4,32.7,28.14,East,90,0.0,0.0,42,0.00,,---,0.00,VWS V14.01,2013-07-20 09:18:00,
2013-07-20 02:23:00,55.0,34.1,28.14,NNE,22,0.0,0.0,45,0.00,,---,0.00,VWS V14.01,2013-07-20 09:23:00,
2013-07-20 02:28:00,54.9,33.4,28.17,WNW,292,0.0,0.0,44,0.00,,---,0.00,VWS V14.01,2013-07-20 09:28:00,
2013-07-20 02:33:00,54.5,33.0,28.17,NE,45,0.0,0.0,44,0.00,,---,0.00,VWS V14.01,2013-07-20 09:33:00,
2013-07-20 02:38:00,54.7,33.2,28.17,WSW,248,0.0,0.0,44,0.00,,---,0.00,VWS V14.01,2013-07-20 09:38:00,
2013-07-20 02:43:00,54.3,33.5,28.14,NNW,338,0.0,0.0,45,0.00,,---,0.00,VWS V14.01,2013-07-20 09:43:00,
2013-07-20 02:48:00,54.7,33.2,28.14,ENE,68,0.0,0.0,44,0.00,,---,0.00,VWS V14.01,2013-07-20 09:48:00,
2013-07-20 02:53:00,54.7,32.6,28.14,WNW,292,0.0,0.0,43,0.00,,---,0.00,VWS V14.01,2013-07-20 09:53:00,
2013-07-20 02:58:00,54.3,31.7,28.14,WSW,248,0.0,0.0,42,0.00,,---,0.00,VWS V14.01,2013-07-20 09:58:00,
2013-07-20 03:03:00,54.5,31.9,28.14,NNE,22,0.0,0.0,42,0.00,,---,0.00,VWS V14.01,2013-07-20 10:03:00,
2013-07-20 03:08:00,54.1,31.6,28.14,WNW,292,0.0,0.0,42,0.00,,---,0.00,VWS V14.01,2013-07-20 10:08:00,
2013-07-20 03:13:00,54.1,32.2,28.14,WNW,292,0.0,0.0,43,0.00,,---,0.00,VWS V14.01,2013-07-20 10:13:00,
2013-07-20 03:18:00,54.1,31.6,28.14,SSE,158,0.0,0.0,42,0.00,,---,0.00,VWS V14.01,2013-07-20 10:18:00,
2013-07-20 03:23:00,54.1,31.0,28.14,SSW,202,0.0,0.0,41,0.00,,---,0.00,VWS V14.01,2013-07-20 10:23:00,
2013-07-20 03:28:00,54.5,31.3,28.14,NNE,22,0.0,0.0,41,0.00,,---,0.00,VWS V14.01,2013-07-20 10:28:00,
2013-07-20 03:33:00,54.5,31.3,28.14,WNW,292,0.0,0.0,41,0.00,,---,0.00,VWS V14.01,2013-07-20 10:33:00,
2013-07-20 03:38:00,54.5,30.7,28.14,NW,315,0.0,0.0,40,0.00,,---,0.00,VWS V14.01,2013-07-20 10:38:00,
2013-07-20 03:43:00,54.7,30.9,28.14,East,90,0.0,0.0,40,0.00,,---,0.00,VWS V14.01,2013-07-20 10:43:00,
2013-07-20 03:48:00,54.5,30.1,28.14,SW,225,0.0,0.0,39,0.00,,---,0.00,VWS V14.01,2013-07-20 10:48:00,
2013-07-20 03:53:00,54.7,30.2,28.14,SW,225,0.0,0.0,39,0.00,,---,0.00,VWS V14.01,2013-07-20 10:53:00,
2013-07-20 03:58:00,54.7,30.2,28.14,SSW,202,0.0,0.0,39,0.00,,---,0.00,VWS V14.01,2013-07-20 10:58:00,
2013-07-20 04:03:00,54.5,29.4,28.14,WSW,248,0.0,0.0,38,0.00,,---,0.00,VWS V14.01,2013-07-20 11:03:00,
2013-07-20 04:08:00,54.5,29.4,28.14,West,270,0.0,0.0,38,0.00,,---,0.00,VWS V14.01,2013-07-20 11:08:00,
2013-07-20 04:13:00,54.5,29.4,28.14,WSW,248,0.0,0.0,38,0.00,,---,0.00,VWS V14.01,2013-07-20 11:13:00,
2013-07-20 04:18:00,54.3,29.3,28.14,SSW,202,0.0,0.0,38,0.00,,---,0.00,VWS V14.01,2013-07-20 11:18:00,
2013-07-20 04:23:00,54.0,29.6,28.14,South,180,0.0,0.0,39,0.00,,---,0.00,VWS V14.01,2013-07-20 11:23:00,
2013-07-20 04:28:00,53.8,29.4,28.14,WSW,248,0.0,0.0,39,0.00,,---,0.00,VWS V14.01,2013-07-20 11:28:00,
2013-07-20 04:33:00,53.4,29.7,28.14,South,180,0.0,0.0,40,0.00,,---,0.00,VWS V14.01,2013-07-20 11:33:00,
2013-07-20 04:38:00,53.1,29.4,28.14,SSW,202,0.0,0.0,40,0.00,,---,0.00,VWS V14.01,2013-07-20 11:38:00,
2013-07-20 04:43:00,52.7,29.1,28.14,West,270,0.0,0.0,40,0.00,,---,0.00,VWS V14.01,2013-07-20 11:43:00,
2013-07-20 04:48:00,52.7,29.1,28.14,West,270,0.0,0.0,40,0.00,,---,0.00,VWS V14.01,2013-07-20 11:48:00,
2013-07-20 04:53:00,52.3,28.8,28.14,North,0,0.0,0.0,40,0.00,,---,0.00,VWS V14.01,2013-07-20 11:53:00,
2013-07-20 04:58:00,52.0,29.0,28.14,ESE,112,0.0,0.0,41,0.00,,---,0.00,VWS V14.01,2013-07-20 11:58:00,
2013-07-20 05:04:00,51.6,29.3,28.14,South,180,0.0,0.0,42,0.00,,---,0.00,VWS V14.01,2013-07-20 12:04:00,
2013-07-20 05:09:00,51.4,29.1,28.14,WNW,292,0.0,0.0,42,0.00,,---,0.00,VWS V14.01,2013-07-20 12:09:00,
2013-07-20 05:14:00,51.1,28.8,28.14,WNW,292,0.0,0.0,42,0.00,,---,0.00,VWS V14.01,2013-07-20 12:14:00,
2013-07-20 05:19:00,50.5,29.5,28.14,WNW,292,0.0,0.0,44,0.00,,---,0.00,VWS V14.01,2013-07-20 12:19:00,
2013-07-20 05:24:00,50.4,29.8,28.14,NNW,338,0.0,0.0,45,0.00,,---,0.00,VWS V14.01,2013-07-20 12:24:00,
2013-07-20 05:29:00,50.2,29.1,28.14,WNW,292,0.0,0.0,44,0.00,,---,0.00,VWS V14.01,2013-07-20 12:29:00,
2013-07-20 05:34:00,50.0,29.5,28.14,NNW,338,0.0,0.0,45,0.00,,---,0.00,VWS V14.01,2013-07-20 12:34:00,
2013-07-20 05:39:00,49.6,30.2,28.14,North,0,0.0,0.0,47,0.00,,---,0.00,VWS V14.01,2013-07-20 12:39:00,
2013-07-20 05:44:00,49.5,29.6,28.14,NW,315,0.0,0.0,46,0.00,,---,0.00,VWS V14.01,2013-07-20 12:44:00,
2013-07-20 05:49:00,49.3,29.4,28.14,NW,315,0.0,0.0,46,0.00,,---,0.00,VWS V14.01,2013-07-20 12:49:00,
2013-07-20 05:54:00,49.3,29.4,28.14,SW,225,0.0,0.0,46,0.00,,---,0.00,VWS V14.01,2013-07-20 12:54:00,
2013-07-20 05:59:00,49.3,29.4,28.17,NNE,22,0.0,0.0,46,0.00,,---,0.00,VWS V14.01,2013-07-20 12:59:00,
2013-07-20 06:04:00,49.1,29.8,28.17,NE,45,0.0,0.0,47,0.00,,---,0.00,VWS V14.01,2013-07-20 13:04:00,
2013-07-20 06:09:00,48.9,29.6,28.17,West,270,0.0,0.0,47,0.00,,---,0.00,VWS V14.01,2013-07-20 13:09:00,
2013-07-20 06:14:00,48.9,30.1,28.17,WNW,292,0.0,0.0,48,0.00,,---,0.00,VWS V14.01,2013-07-20 13:14:00,
2013-07-20 06:19:00,48.6,29.8,28.17,WNW,292,0.0,0.0,48,0.00,,---,0.00,VWS V14.01,2013-07-20 13:19:00,
2013-07-20 06:24:00,48.4,29.6,28.17,NNE,22,0.0,0.0,48,0.00,,---,0.00,VWS V14.01,2013-07-20 13:24:00,
2013-07-20 06:29:00,48.4,29.6,28.14,NNW,338,0.0,0.0,48,0.00,,---,0.00,VWS V14.01,2013-07-20 13:29:00,
2013-07-20 06:34:00,48.4,30.6,28.14,NNW,338,0.0,0.0,50,0.00,,---,0.00,VWS V14.01,2013-07-20 13:34:00,
2013-07-20 06:39:00,48.4,30.1,28.14,NNW,338,0.0,0.0,49,0.00,,---,0.00,VWS V14.01,2013-07-20 13:39:00,
2013-07-20 06:44:00,48.2,30.5,28.17,NNW,338,0.0,0.0,50,0.00,,---,0.00,VWS V14.01,2013-07-20 13:44:00,
2013-07-20 06:49:00,48.0,30.8,28.17,North,0,0.0,0.0,51,0.00,,---,0.00,VWS V14.01,2013-07-20 13:49:00,
2013-07-20 06:54:00,48.0,30.8,28.17,NE,45,0.0,0.0,51,0.00,,---,0.00,VWS V14.01,2013-07-20 13:54:00,
2013-07-20 06:59:00,47.8,31.1,28.14,NW,315,0.0,0.0,52,0.00,,---,0.00,VWS V14.01,2013-07-20 13:59:00,
2013-07-20 07:04:00,47.8,31.5,28.14,NNE,22,0.0,0.0,53,0.00,,---,0.00,VWS V14.01,2013-07-20 14:04:00,
2013-07-20 07:09:00,49.6,33.2,28.14,ENE,68,0.0,0.0,53,0.00,,---,0.00,VWS V14.01,2013-07-20 14:09:00,
2013-07-20 07:14:00,52.3,35.7,28.14,ENE,68,0.0,0.0,53,0.00,,---,0.00,VWS V14.01,2013-07-20 14:14:00,
2013-07-20 07:19:00,53.6,36.4,28.14,ENE,68,0.0,0.0,52,0.00,,---,0.00,VWS V14.01,2013-07-20 14:19:00,
2013-07-20 07:24:00,54.7,37.4,28.14,ENE,68,0.0,0.0,52,0.00,,---,0.00,VWS V14.01,2013-07-20 14:24:00,
2013-07-20 07:29:00,55.9,38.1,28.14,ENE,68,0.0,0.0,51,0.00,,---,0.00,VWS V14.01,2013-07-20 14:29:00,
2013-07-20 07:34:00,56.3,37.9,28.14,ENE,68,0.0,0.0,50,0.00,,---,0.00,VWS V14.01,2013-07-20 14:34:00,
2013-07-20 07:39:00,57.2,38.2,28.14,ENE,68,0.0,0.0,49,0.00,,---,0.00,VWS V14.01,2013-07-20 14:39:00,
2013-07-20 07:44:00,57.7,38.7,28.17,East,90,0.0,0.0,49,0.00,,---,0.00,VWS V14.01,2013-07-20 14:44:00,
2013-07-20 07:49:00,58.1,39.1,28.17,ENE,68,0.0,0.0,49,0.00,,---,0.00,VWS V14.01,2013-07-20 14:49:00,
2013-07-20 07:54:00,58.1,39.1,28.17,East,90,0.0,0.0,49,0.00,,---,0.00,VWS V14.01,2013-07-20 14:54:00,
2013-07-20 08:00:00,58.8,39.7,28.14,East,90,0.0,0.0,49,0.00,,---,0.00,VWS V14.01,2013-07-20 15:00:00,
2013-07-20 08:05:00,59.9,41.2,28.14,ENE,68,0.0,0.0,50,0.00,,---,0.00,VWS V14.01,2013-07-20 15:05:00,
2013-07-20 08:10:00,60.6,41.4,28.14,ENE,68,0.0,0.0,49,0.00,,---,0.00,VWS V14.01,2013-07-20 15:10:00,
2013-07-20 08:15:00,61.9,42.5,28.14,ENE,68,0.0,0.0,49,0.00,,---,0.00,VWS V14.01,2013-07-20 15:15:00,
2013-07-20 08:20:00,63.3,43.3,28.14,ENE,68,0.0,0.0,48,0.00,,---,0.00,VWS V14.01,2013-07-20 15:20:00,
2013-07-20 08:25:00,64.4,42.6,28.14,ENE,68,0.0,0.0,45,0.00,,---,0.00,VWS V14.01,2013-07-20 15:25:00,
2013-07-20 08:30:00,66.6,44.0,28.14,ENE,68,0.0,0.0,44,0.00,,---,0.00,VWS V14.01,2013-07-20 15:30:00,
2013-07-20 08:35:00,69.3,45.2,28.14,ENE,68,0.0,0.0,42,0.00,,---,0.00,VWS V14.01,2013-07-20 15:35:00,
2013-07-20 08:40:00,70.3,46.2,28.14,ENE,68,0.0,0.0,42,0.00,,---,0.00,VWS V14.01,2013-07-20 15:40:00,
2013-07-20 08:45:00,73.0,48.6,28.14,ENE,68,0.0,0.0,42,0.00,,---,0.00,VWS V14.01,2013-07-20 15:45:00,
2013-07-20 08:50:00,74.1,47.6,28.14,ENE,68,0.0,0.0,39,0.00,,---,0.00,VWS V14.01,2013-07-20 15:50:00,
2013-07-20 08:55:00,76.5,46.8,28.14,ENE,68,0.0,0.0,35,0.00,,---,0.00,VWS V14.01,2013-07-20 15:55:00,
2013-07-20 09:00:00,78.3,47.6,28.14,East,90,0.0,0.0,34,0.00,,---,0.00,VWS V14.01,2013-07-20 16:00:00,
2013-07-20 09:05:00,80.2,43.3,28.14,East,90,0.0,0.0,27,0.00,,---,0.00,VWS V14.01,2013-07-20 16:05:00,
2013-07-20 09:10:00,81.9,42.6,28.14,ENE,68,0.0,0.0,25,0.00,,---,0.00,VWS V14.01,2013-07-20 16:10:00,
2013-07-20 09:15:00,81.5,43.3,28.14,ENE,68,0.0,0.0,26,0.00,,---,0.00,VWS V14.01,2013-07-20 16:15:00,
2013-07-20 09:20:00,83.1,42.6,28.14,East,90,0.0,0.0,24,0.00,,---,0.00,VWS V14.01,2013-07-20 16:20:00,
2013-07-20 09:25:00,83.7,39.6,28.14,East,90,0.0,0.0,21,0.00,,---,0.00,VWS V14.01,2013-07-20 16:25:00,
2013-07-20 09:30:00,84.9,38.1,28.14,ENE,68,0.0,0.0,19,0.00,,---,0.00,VWS V14.01,2013-07-20 16:30:00,
2013-07-20 09:35:00,85.6,38.7,28.14,ENE,68,0.0,0.0,19,0.00,,---,0.00,VWS V14.01,2013-07-20 16:35:00,
2013-07-20 09:40:00,86.7,38.2,28.14,ENE,68,0.0,0.0,18,0.00,,---,0.00,VWS V14.01,2013-07-20 16:40:00,
2013-07-20 09:45:00,86.7,38.2,28.14,East,90,0.0,0.0,18,0.00,,---,0.00,VWS V14.01,2013-07-20 16:45:00,
2013-07-20 09:50:00,86.7,38.2,28.14,ENE,68,0.0,0.0,18,0.00,,---,0.00,VWS V14.01,2013-07-20 16:50:00,
2013-07-20 09:55:00,86.0,37.6,28.14,NNE,22,0.0,0.0,18,0.00,,---,0.00,VWS V14.01,2013-07-20 16:55:00,
2013-07-20 10:00:00,86.4,34.9,28.11,ENE,68,0.0,0.0,16,0.00,,---,0.00,VWS V14.01,2013-07-20 17:00:00,
2013-07-20 10:05:00,87.3,35.6,28.11,ENE,68,0.0,0.0,16,0.00,,---,0.00,VWS V14.01,2013-07-20 17:05:00,
2013-07-20 10:10:00,87.4,35.8,28.11,ENE,68,0.0,0.0,16,0.00,,---,0.00,VWS V14.01,2013-07-20 17:10:00,
2013-07-20 10:15:00,87.3,35.6,28.11,ENE,68,0.0,0.0,16,0.00,,---,0.00,VWS V14.01,2013-07-20 17:15:00,
2013-07-20 10:20:00,86.9,35.3,28.11,East,90,0.0,0.0,16,0.00,,---,0.00,VWS V14.01,2013-07-20 17:20:00,
2013-07-20 10:25:00,86.2,29.6,28.11,NE,45,0.0,0.0,13,0.00,,---,0.00,VWS V14.01,2013-07-20 17:25:00,
2013-07-20 10:30:00,85.6,25.2,28.11,NE,45,0.0,0.0,11,0.00,,---,0.00,VWS V14.01,2013-07-20 17:30:00,
2013-07-20 10:35:00,85.8,29.4,28.11,East,90,0.0,0.0,13,0.00,,---,0.00,VWS V14.01,2013-07-20 17:35:00,
2013-07-20 10:40:00,86.0,29.5,28.11,East,90,0.0,0.0,13,0.00,,---,0.00,VWS V14.01,2013-07-20 17:40:00,
2013-07-20 10:45:00,86.5,29.9,28.11,NNW,338,0.0,0.0,13,0.00,,---,0.00,VWS V14.01,2013-07-20 17:45:00,
2013-07-20 10:50:00,86.7,30.0,28.11,ENE,68,0.0,0.0,13,0.00,,---,0.00,VWS V14.01,2013-07-20 17:50:00,
2013-07-20 10:55:00,87.1,30.3,28.11,ENE,68,0.0,0.0,13,0.00,,---,0.00,VWS V14.01,2013-07-20 17:55:00,
2013-07-20 11:00:00,88.5,31.5,28.11,NE,45,0.0,0.0,13,0.00,,---,0.00,VWS V14.01,2013-07-20 18:00:00,
2013-07-20 11:05:00,90.3,30.9,28.11,NNE,22,0.0,0.0,12,0.00,,---,0.00,VWS V14.01,2013-07-20 18:05:00,
2013-07-20 11:10:00,92.5,32.5,28.11,ENE,68,0.0,0.0,12,0.00,,---,0.00,VWS V14.01,2013-07-20 18:10:00,
2013-07-20 11:15:00,94.6,38.1,28.11,NE,45,0.0,0.0,14,0.00,,---,0.00,VWS V14.01,2013-07-20 18:15:00,
2013-07-20 11:20:00,95.5,32.7,28.11,NE,45,0.0,0.0,11,0.00,,---,0.00,VWS V14.01,2013-07-20 18:20:00,
2013-07-20 11:26:00,95.4,27.7,28.11,NE,45,0.0,1.6,9,0.00,,---,0.00,VWS V14.01,2013-07-20 18:26:00,
2013-07-20 11:31:00,96.4,28.5,28.08,East,90,1.6,1.6,9,0.00,,---,0.00,VWS V14.01,2013-07-20 18:31:00,
2013-07-20 11:36:00,97.5,26.4,28.08,NE,45,0.0,2.7,8,0.00,,---,0.00,VWS V14.01,2013-07-20 18:36:00,
2013-07-20 11:41:00,98.2,27.0,28.08,East,90,0.0,0.0,8,0.00,,---,0.00,VWS V14.01,2013-07-20 18:41:00,
2013-07-20 11:46:00,99.0,27.5,28.08,NE,45,0.0,2.0,8,0.00,,---,0.00,VWS V14.01,2013-07-20 18:46:00,
2013-07-20 11:51:00,99.0,27.5,28.08,ENE,68,1.1,2.2,8,0.00,,---,0.00,VWS V14.01,2013-07-20 18:51:00,
2013-07-20 11:56:00,98.6,16.1,28.08,ENE,68,2.5,2.9,5,0.00,,---,0.00,VWS V14.01,2013-07-20 18:56:00,
2013-07-20 12:01:00,99.3,16.6,28.08,ENE,68,2.5,2.5,5,0.00,,---,0.00,VWS V14.01,2013-07-20 19:01:00,
2013-07-20 12:06:00,99.7,16.9,28.08,NNE,22,0.0,0.0,5,0.00,,---,0.00,VWS V14.01,2013-07-20 19:06:00,
2013-07-20 12:11:00,99.3,16.6,28.08,ENE,68,0.0,3.6,5,0.00,,---,0.00,VWS V14.01,2013-07-20 19:11:00,
2013-07-20 12:16:00,100.2,17.2,28.08,NE,45,0.0,0.0,5,0.00,,---,0.00,VWS V14.01,2013-07-20 19:16:00,
2013-07-20 12:21:00,100.8,17.6,28.08,NE,45,0.0,0.0,5,0.00,,---,0.00,VWS V14.01,2013-07-20 19:21:00,
2013-07-20 12:26:00,102.7,13.9,28.08,East,90,0.0,0.0,4,0.00,,---,0.00,VWS V14.01,2013-07-20 19:26:00,
2013-07-20 12:31:00,100.9,17.8,28.05,ENE,68,0.0,1.6,5,0.00,,---,0.00,VWS V14.01,2013-07-20 19:31:00,
2013-07-20 12:36:00,100.8,17.6,28.05,ENE,68,0.0,0.0,5,0.00,,---,0.00,VWS V14.01,2013-07-20 19:36:00,
2013-07-20 12:41:00,101.8,18.4,28.05,ENE,68,0.0,0.0,5,0.00,,---,0.00,VWS V14.01,2013-07-20 19:41:00,
2013-07-20 12:46:00,101.8,26.3,28.05,NNE,22,0.0,0.0,7,0.00,,---,0.00,VWS V14.01,2013-07-20 19:46:00,
2013-07-20 12:51:00,101.7,18.2,28.05,ENE,68,0.0,0.0,5,0.00,,---,0.00,VWS V14.01,2013-07-20 19:51:00,
2013-07-20 12:56:00,101.3,26.0,28.05,NE,45,0.0,0.0,7,0.00,,---,0.00,VWS V14.01,2013-07-20 19:56:00,
2013-07-20 13:01:00,101.1,25.8,28.05,NE,45,1.1,1.1,7,0.00,,---,0.00,VWS V14.01,2013-07-20 20:01:00,
2013-07-20 13:07:00,99.3,16.6,28.05,NE,45,0.0,2.0,5,0.00,,---,0.00,VWS V14.01,2013-07-20 20:07:00,
2013-07-20 13:12:00,98.6,27.2,28.05,ESE,112,0.0,0.0,8,0.00,,---,0.00,VWS V14.01,2013-07-20 20:12:00,
2013-07-20 13:17:00,97.9,19.8,28.05,ESE,112,0.0,0.0,6,0.00,,---,0.00,VWS V14.01,2013-07-20 20:17:00,
2013-07-20 13:22:00,97.3,19.5,28.05,NNE,22,0.0,2.0,6,0.00,,---,0.00,VWS V14.01,2013-07-20 20:22:00,
2013-07-20 13:27:00,97.0,19.2,28.05,ENE,68,0.0,0.0,6,0.00,,---,0.00,VWS V14.01,2013-07-20 20:27:00,
2013-07-20 13:32:00,97.5,19.6,28.05,NE,45,2.5,2.7,6,0.00,,---,0.00,VWS V14.01,2013-07-20 20:32:00,
2013-07-20 13:37:00,97.9,19.8,28.05,ENE,68,4.7,4.7,6,0.00,,---,0.00,VWS V14.01,2013-07-20 20:37:00,
2013-07-20 13:42:00,100.4,17.4,28.05,ENE,68,0.0,0.0,5,0.00,,---,0.00,VWS V14.01,2013-07-20 20:42:00,
2013-07-20 13:47:00,100.9,17.8,28.05,NNE,22,0.0,0.0,5,0.00,,---,0.00,VWS V14.01,2013-07-20 20:47:00,
2013-07-20 13:52:00,101.3,18.0,28.05,NNE,22,0.0,0.0,5,0.00,,---,0.00,VWS V14.01,2013-07-20 20:52:00,
2013-07-20 13:57:00,100.9,17.8,28.05,NE,45,0.0,0.0,5,0.00,,---,0.00,VWS V14.01,2013-07-20 20:57:00,
2013-07-20 14:02:00,99.7,16.9,28.05,ESE,112,0.0,0.0,5,0.00,,---,0.00,VWS V14.01,2013-07-20 21:02:00,
2013-07-20 14:07:00,99.3,16.6,28.05,NE,45,0.0,0.0,5,0.00,,---,0.00,VWS V14.01,2013-07-20 21:07:00,
2013-07-20 14:12:00,98.4,20.2,28.05,NNE,22,2.2,2.2,6,0.00,,---,0.00,VWS V14.01,2013-07-20 21:12:00,
2013-07-20 14:17:00,98.6,16.1,28.05,NE,45,0.0,0.0,5,0.00,,---,0.00,VWS V14.01,2013-07-20 21:17:00,
2013-07-20 14:23:00,97.5,19.6,28.05,East,90,0.0,2.5,6,0.00,,---,0.00,VWS V14.01,2013-07-20 21:23:00,
2013-07-20 14:28:00,97.5,19.6,28.05,NE,45,0.0,0.0,6,0.00,,---,0.00,VWS V14.01,2013-07-20 21:28:00,
2013-07-20 14:33:00,97.7,19.7,28.02,NNE,22,0.0,0.0,6,0.00,,---,0.00,VWS V14.01,2013-07-20 21:33:00,
2013-07-20 14:38:00,98.6,16.1,28.02,NE,45,1.1,1.1,5,0.00,,---,0.00,VWS V14.01,2013-07-20 21:38:00,
2013-07-20 14:43:00,100.0,17.1,28.05,ENE,68,0.0,0.0,5,0.00,,---,0.00,VWS V14.01,2013-07-20 21:43:00,
2013-07-20 14:48:00,100.2,17.2,28.05,NNE,22,3.6,3.6,5,0.00,,---,0.00,VWS V14.01,2013-07-20 21:48:00,
2013-07-20 14:54:00,100.6,17.5,28.05,SSE,158,5.4,5.4,5,0.00,,---,0.00,VWS V14.01,2013-07-20 21:54:00,
2013-07-20 14:59:00,102.0,26.5,28.02,ENE,68,0.0,0.0,7,0.00,,---,0.00,VWS V14.01,2013-07-20 21:59:00,
2013-07-20 15:05:00,101.8,18.4,28.02,NE,45,3.8,4.0,5,0.00,,---,0.00,VWS V14.01,2013-07-20 22:05:00,
2013-07-20 15:10:00,102.7,27.0,28.02,NNE,22,0.0,0.0,7,0.00,,---,0.00,VWS V14.01,2013-07-20 22:10:00,
2013-07-20 15:15:00,102.9,14.0,28.02,ESE,112,0.9,3.1,4,0.00,,---,0.00,VWS V14.01,2013-07-20 22:15:00,
2013-07-20 15:20:00,104.4,15.0,28.02,East,90,0.0,0.0,4,0.00,,---,0.00,VWS V14.01,2013-07-20 22:20:00,
2013-07-20 15:25:00,104.5,28.3,28.02,ESE,112,0.0,0.0,7,0.00,,---,0.00,VWS V14.01,2013-07-20 22:25:00,
2013-07-20 15:30:00,102.4,13.6,28.02,ESE,112,2.2,2.5,4,0.00,,---,0.00,VWS V14.01,2013-07-20 22:30:00,
2013-07-20 15:35:00,103.8,14.6,28.02,WSW,248,0.0,0.9,4,0.00,,---,0.00,VWS V14.01,2013-07-20 22:35:00,
2013-07-20 15:40:00,102.4,26.7,28.02,East,90,2.2,2.2,7,0.00,,---,0.00,VWS V14.01,2013-07-20 22:40:00,
2013-07-20 15:45:00,101.5,26.1,28.02,NNE,22,0.0,0.0,7,0.00,,---,0.00,VWS V14.01,2013-07-20 22:45:00,
2013-07-20 15:50:00,100.6,25.4,28.02,East,90,4.9,4.9,7,0.00,,---,0.00,VWS V14.01,2013-07-20 22:50:00,
2013-07-20 15:55:00,98.1,20.0,28.02,SSE,158,0.0,2.7,6,0.00,,---,0.00,VWS V14.01,2013-07-20 22:55:00,
2013-07-20 16:00:00,96.6,18.9,28.02,East,90,0.0,4.7,6,0.00,,---,0.00,VWS V14.01,2013-07-20 23:00:00,
2013-07-20 16:05:00,96.6,28.6,28.02,NNE,22,0.0,0.0,9,0.00,,---,0.00,VWS V14.01,2013-07-20 23:05:00,
2013-07-20 16:10:00,95.9,28.1,28.02,WNW,292,0.0,0.9,9,0.00,,---,0.00,VWS V14.01,2013-07-20 23:10:00,
2013-07-20 16:15:00,95.2,27.5,28.02,NNE,22,0.0,0.0,9,0.00,,---,0.00,VWS V14.01,2013-07-20 23:15:00,
2013-07-20 16:20:00,95.0,27.4,28.02,ENE,68,3.8,5.4,9,0.00,,---,0.00,VWS V14.01,2013-07-20 23:20:00,
2013-07-20 16:25:00,94.6,27.1,28.02,East,90,3.4,3.4,9,0.00,,---,0.00,VWS V14.01,2013-07-20 23:25:00,
2013-07-20 16:30:00,94.6,27.1,28.02,NNE,22,0.0,0.0,9,0.00,,---,0.00,VWS V14.01,2013-07-20 23:30:00,
2013-07-20 16:35:00,94.5,27.0,28.02,SE,135,0.0,3.8,9,0.00,,---,0.00,VWS V14.01,2013-07-20 23:35:00,
2013-07-20 16:41:00,93.7,26.5,28.02,East,90,5.8,5.8,9,0.00,,---,0.00,VWS V14.01,2013-07-20 23:41:00,
2013-07-20 16:46:00,92.8,25.8,27.99,SSE,158,1.6,4.0,9,0.00,,---,0.00,VWS V14.01,2013-07-20 23:46:00,
2013-07-20 16:51:00,92.3,25.4,27.99,East,90,2.2,4.7,9,0.00,,---,0.00,VWS V14.01,2013-07-20 23:51:00,
2013-07-20 16:56:00,91.8,32.0,27.99,NE,45,0.0,1.6,12,0.00,,---,0.00,VWS V14.01,2013-07-20 23:56:00,
2013-07-20 17:01:00,90.1,36.3,28.02,SSE,158,0.0,0.0,15,0.00,,---,0.00,VWS V14.01,2013-07-21 00:01:00,
2013-07-20 17:06:00,88.7,39.8,28.02,SSE,158,0.0,0.0,18,0.00,,---,0.00,VWS V14.01,2013-07-21 00:06:00,
2013-07-20 17:11:00,88.2,34.7,28.02,East,90,0.0,0.0,15,0.00,,---,0.00,VWS V14.01,2013-07-21 00:11:00,
2013-07-20 17:16:00,87.8,34.5,27.99,ESE,112,0.0,1.1,15,0.00,,---,0.00,VWS V14.01,2013-07-21 00:16:00,
2013-07-20 17:21:00,87.3,38.6,27.99,SSE,158,0.0,0.0,18,0.00,,---,0.00,VWS V14.01,2013-07-21 00:21:00,
2013-07-20 17:26:00,86.7,38.2,27.99,South,180,0.9,2.2,18,0.00,,---,0.00,VWS V14.01,2013-07-21 00:26:00,
2013-07-20 17:31:00,86.4,37.9,27.99,ENE,68,0.0,1.6,18,0.00,,---,0.00,VWS V14.01,2013-07-21 00:31:00,
2013-07-20 17:36:00,86.7,38.2,27.99,SE,135,0.0,3.4,18,0.00,,---,0.00,VWS V14.01,2013-07-21 00:36:00,
2013-07-20 17:41:00,86.4,37.9,27.99,SW,225,0.0,2.5,18,0.00,,---,0.00,VWS V14.01,2013-07-21 00:41:00,
2013-07-20 17:46:00,85.6,38.7,27.99,ESE,112,2.2,2.2,19,0.00,,---,0.00,VWS V14.01,2013-07-21 00:46:00,
2013-07-20 17:51:00,85.5,38.5,27.99,SSE,158,3.4,3.4,19,0.00,,---,0.00,VWS V14.01,2013-07-21 00:51:00,
2013-07-20 17:57:00,84.4,37.7,27.99,SW,225,0.0,0.0,19,0.00,,---,0.00,VWS V14.01,2013-07-21 00:57:00,
2013-07-20 18:02:00,83.5,38.2,27.99,SSW,202,0.0,0.0,20,0.00,,---,0.00,VWS V14.01,2013-07-21 01:02:00,
2013-07-20 18:07:00,83.7,38.4,27.99,SSW,202,0.0,0.0,20,0.00,,---,0.00,VWS V14.01,2013-07-21 01:07:00,
2013-07-20 18:12:00,83.8,38.5,27.99,SW,225,1.6,1.6,20,0.00,,---,0.00,VWS V14.01,2013-07-21 01:12:00,
2013-07-20 18:17:00,83.8,38.5,27.99,North,0,0.0,2.7,20,0.00,,---,0.00,VWS V14.01,2013-07-21 01:17:00,
2013-07-20 18:22:00,82.0,38.3,27.99,NNW,338,0.0,0.0,21,0.00,,---,0.00,VWS V14.01,2013-07-21 01:22:00,
2013-07-20 18:27:00,80.2,38.0,27.99,SSE,158,0.0,0.0,22,0.00,,---,0.00,VWS V14.01,2013-07-21 01:27:00,
2013-07-20 18:32:00,79.3,38.4,27.99,West,270,0.0,0.0,23,0.00,,---,0.00,VWS V14.01,2013-07-21 01:32:00,
2013-07-20 18:37:00,78.3,40.6,27.99,North,0,0.0,0.0,26,0.00,,---,0.00,VWS V14.01,2013-07-21 01:37:00,
2013-07-20 18:42:00,77.2,37.6,27.99,SW,225,0.0,0.0,24,0.00,,---,0.00,VWS V14.01,2013-07-21 01:42:00,
2013-07-20 18:47:00,77.2,37.6,27.99,West,270,0.0,0.0,24,0.00,,---,0.00,VWS V14.01,2013-07-21 01:47:00,
2013-07-20 18:52:00,76.6,38.2,27.99,West,270,0.0,0.0,25,0.00,,---,0.00,VWS V14.01,2013-07-21 01:52:00,
2013-07-20 18:57:00,75.7,38.5,27.99,WSW,248,0.0,0.0,26,0.00,,---,0.00,VWS V14.01,2013-07-21 01:57:00,
2013-07-20 19:02:00,75.2,39.0,28.02,SSE,158,0.0,0.0,27,0.00,,---,0.00,VWS V14.01,2013-07-21 02:02:00,
2013-07-20 19:07:00,75.2,38.0,28.02,SSE,158,0.0,0.0,26,0.00,,---,0.00,VWS V14.01,2013-07-21 02:07:00,
2013-07-20 19:12:00,74.8,38.7,28.02,WNW,292,0.0,0.0,27,0.00,,---,0.00,VWS V14.01,2013-07-21 02:12:00,
2013-07-20 19:17:00,74.5,38.3,28.02,NNE,22,0.0,0.0,27,0.00,,---,0.00,VWS V14.01,2013-07-21 02:17:00,
2013-07-20 19:23:00,74.1,38.0,28.02,West,270,0.0,0.0,27,0.00,,---,0.00,VWS V14.01,2013-07-21 02:23:00,
2013-07-20 19:28:00,74.1,38.0,28.02,South,180,0.0,0.9,27,0.00,,---,0.00,VWS V14.01,2013-07-21 02:28:00,
2013-07-20 19:33:00,73.8,37.7,28.02,West,270,0.0,0.0,27,0.00,,---,0.00,VWS V14.01,2013-07-21 02:33:00,
2013-07-20 19:38:00,73.6,38.5,28.02,NW,315,0.0,0.0,28,0.00,,---,0.00,VWS V14.01,2013-07-21 02:38:00,
2013-07-20 19:43:00,72.9,37.9,28.02,NNE,22,0.0,0.0,28,0.00,,---,0.00,VWS V14.01,2013-07-21 02:43:00,
2013-07-20 19:48:00,72.1,38.2,28.02,WNW,292,0.0,0.0,29,0.00,,---,0.00,VWS V14.01,2013-07-21 02:48:00,
2013-07-20 19:53:00,72.1,36.3,28.02,WSW,248,0.0,0.0,27,0.00,,---,0.00,VWS V14.01,2013-07-21 02:53:00,
2013-07-20 19:58:00,72.0,37.1,28.02,WSW,248,0.0,0.0,28,0.00,,---,0.00,VWS V14.01,2013-07-21 02:58:00,
2013-07-20 20:03:00,71.4,37.5,28.02,NW,315,0.0,0.0,29,0.00,,---,0.00,VWS V14.01,2013-07-21 03:03:00,
2013-07-20 20:09:00,71.1,36.3,28.02,WSW,248,0.0,0.0,28,0.00,,---,0.00,VWS V14.01,2013-07-21 03:09:00,
2013-07-20 20:14:00,71.1,37.2,28.02,WNW,292,0.0,0.0,29,0.00,,---,0.00,VWS V14.01,2013-07-21 03:14:00,
2013-07-20 20:19:00,70.7,36.9,28.02,NW,315,0.0,0.0,29,0.00,,---,0.00,VWS V14.01,2013-07-21 03:19:00,
2013-07-20 20:24:00,70.3,36.6,28.02,WNW,292,0.0,0.0,29,0.00,,---,0.00,VWS V14.01,2013-07-21 03:24:00,
2013-07-20 20:29:00,70.2,36.5,28.02,West,270,0.0,0.0,29,0.00,,---,0.00,VWS V14.01,2013-07-21 03:29:00,
2013-07-20 20:34:00,70.0,36.3,28.02,SSW,202,0.0,0.0,29,0.00,,---,0.00,VWS V14.01,2013-07-21 03:34:00,
2013-07-20 20:39:00,70.3,36.6,28.02,NW,315,0.0,0.0,29,0.00,,---,0.00,VWS V14.01,2013-07-21 03:39:00,
2013-07-20 20:44:00,70.5,35.9,28.02,NW,315,0.0,0.0,28,0.00,,---,0.00,VWS V14.01,2013-07-21 03:44:00,
2013-07-20 20:49:00,70.9,36.2,28.02,ESE,112,0.0,0.0,28,0.00,,---,0.00,VWS V14.01,2013-07-21 03:49:00,
2013-07-20 20:54:00,71.4,35.7,28.02,ENE,68,0.0,0.0,27,0.00,,---,0.00,VWS V14.01,2013-07-21 03:54:00,
2013-07-20 20:59:00,72.0,35.2,28.02,WNW,292,0.0,0.0,26,0.00,,---,0.00,VWS V14.01,2013-07-21 03:59:00,
2013-07-20 21:01:00,72.0,35.2,28.02,WSW,248,0.0,0.0,26,0.00,,---,0.00,VWS V14.01,2013-07-21 04:01:00,
2013-07-20 21:06:00,72.5,35.7,28.02,WSW,248,0.0,0.0,26,0.00,,---,0.00,VWS V14.01,2013-07-21 04:06:00,
2013-07-20 21:12:00,72.0,34.2,28.02,ENE,68,0.0,0.0,25,0.00,,---,0.00,VWS V14.01,2013-07-21 04:12:00,
2013-07-20 21:17:00,72.0,34.2,28.02,WSW,248,0.0,0.0,25,0.00,,---,0.00,VWS V14.01,2013-07-21 04:17:00,
2013-07-20 21:22:00,72.0,34.2,28.02,WSW,248,0.0,0.0,25,0.00,,---,0.00,VWS V14.01,2013-07-21 04:22:00,
2013-07-20 21:27:00,71.8,34.1,28.02,WSW,248,0.0,0.0,25,0.00,,---,0.00,VWS V14.01,2013-07-21 04:27:00,
2013-07-20 21:32:00,71.4,34.8,28.02,WSW,248,0.0,0.0,26,0.00,,---,0.00,VWS V14.01,2013-07-21 04:32:00,
2013-07-20 21:37:00,72.1,35.4,28.02,WSW,248,2.7,3.1,26,0.00,,---,0.00,VWS V14.01,2013-07-21 04:37:00,
2013-07-20 21:42:00,71.8,35.1,28.02,South,180,0.0,0.0,26,0.00,,---,0.00,VWS V14.01,2013-07-21 04:42:00,
2013-07-20 21:47:00,71.4,35.7,28.02,WNW,292,0.0,0.0,27,0.00,,---,0.00,VWS V14.01,2013-07-21 04:47:00,
2013-07-20 21:52:00,70.9,34.3,28.02,West,270,0.0,0.0,26,0.00,,---,0.00,VWS V14.01,2013-07-21 04:52:00,
2013-07-20 21:57:00,70.2,34.7,28.02,South,180,0.0,0.0,27,0.00,,---,0.00,VWS V14.01,2013-07-21 04:57:00,
2013-07-20 22:02:00,69.8,34.3,28.02,SW,225,0.0,0.0,27,0.00,,---,0.00,VWS V14.01,2013-07-21 05:02:00,
2013-07-20 22:07:00,69.4,35.0,28.02,WSW,248,0.0,0.0,28,0.00,,---,0.00,VWS V14.01,2013-07-21 05:07:00,
2013-07-20 22:12:00,68.5,34.2,28.02,West,270,0.0,0.0,28,0.00,,---,0.00,VWS V14.01,2013-07-21 05:12:00,
2013-07-20 22:17:00,68.4,34.0,28.02,WSW,248,0.0,0.0,28,0.00,,---,0.00,VWS V14.01,2013-07-21 05:17:00,
2013-07-20 22:22:00,67.8,35.3,28.02,West,270,0.0,0.0,30,0.00,,---,0.00,VWS V14.01,2013-07-21 05:22:00,
2013-07-20 22:27:00,67.5,35.8,28.02,WNW,292,0.0,0.0,31,0.00,,---,0.00,VWS V14.01,2013-07-21 05:27:00,
2013-07-20 22:32:00,67.3,37.2,28.02,ENE,68,0.0,0.0,33,0.00,,---,0.00,VWS V14.01,2013-07-21 05:32:00,
2013-07-20 22:37:00,67.5,37.4,28.02,SSW,202,0.0,0.0,33,0.00,,---,0.00,VWS V14.01,2013-07-21 05:37:00,
2013-07-20 22:42:00,67.6,36.8,28.02,WSW,248,0.0,0.0,32,0.00,,---,0.00,VWS V14.01,2013-07-21 05:42:00,
2013-07-20 22:47:00,67.1,36.3,28.05,WSW,248,0.0,0.0,32,0.00,,---,0.00,VWS V14.01,2013-07-21 05:47:00,
2013-07-20 22:52:00,66.9,36.9,28.05,WSW,248,0.0,0.0,33,0.00,,---,0.00,VWS V14.01,2013-07-21 05:52:00,
2013-07-20 22:57:00,66.9,36.9,28.05,SW,225,0.0,0.0,33,0.00,,---,0.00,VWS V14.01,2013-07-21 05:57:00,
2013-07-20 23:02:00,66.6,36.6,28.02,West,270,0.0,0.0,33,0.00,,---,0.00,VWS V14.01,2013-07-21 06:02:00,
2013-07-20 23:07:00,66.0,36.1,28.02,WSW,248,0.0,0.0,33,0.00,,---,0.00,VWS V14.01,2013-07-21 06:07:00,
2013-07-20 23:12:00,65.8,36.7,28.02,West,270,0.0,0.0,34,0.00,,---,0.00,VWS V14.01,2013-07-21 06:12:00,
2013-07-20 23:17:00,65.5,36.4,28.02,North,0,0.0,0.0,34,0.00,,---,0.00,VWS V14.01,2013-07-21 06:17:00,
2013-07-20 23:22:00,64.9,35.9,28.02,North,0,0.0,0.0,34,0.00,,---,0.00,VWS V14.01,2013-07-21 06:22:00,
2013-07-20 23:27:00,64.6,35.6,28.02,NW,315,0.0,0.0,34,0.00,,---,0.00,VWS V14.01,2013-07-21 06:27:00,
2013-07-20 23:32:00,64.2,36.0,28.02,West,270,0.0,0.0,35,0.00,,---,0.00,VWS V14.01,2013-07-21 06:32:00,
2013-07-20 23:37:00,64.0,35.9,28.02,West,270,0.0,0.0,35,0.00,,---,0.00,VWS V14.01,2013-07-21 06:37:00,
2013-07-20 23:42:00,63.9,35.7,28.02,WNW,292,0.0,0.0,35,0.00,,---,0.00,VWS V14.01,2013-07-21 06:42:00,
2013-07-20 23:47:00,63.7,35.5,28.02,WNW,292,0.0,0.0,35,0.00,,---,0.00,VWS V14.01,2013-07-21 06:47:00,
2013-07-20 23:52:00,63.5,36.1,28.02,North,0,0.0,0.0,36,0.00,,---,0.00,VWS V14.01,2013-07-21 06:52:00,
2013-07-20 23:57:00,63.3,35.9,28.02,NW,315,0.0,0.0,36,0.00,,---,0.00,VWS V14.01,2013-07-21 06:57:00,